Weather Roundup
Issued by NWS Springfield, MO

Home | Current Version | Previous Version | Text Only | Print | Product List | Glossary On
Versions: 1 2 3 4 5 6 7 8 9 10 11 12 13 14 15 16 17 18 19 20 21 22 23 24 25 26 27 28 29 30 31 32 33 34 35 36 37 38 39 40 41 42 43 44 45 46 47 48 49 50
000
NZUS99 KSGF 271459
HRRSGF

HOURLY WEATHER
NATIONAL WEATHER SERVICE SPRINGFIELD MO
1000 AM CDT WED MAY 27 2015

......SGF CWA......

CITY           SKY/WX    TMP DP  RH WIND       PRES   REMARKS
SPRINGFIELD    PTSUNNY   72  67  84 CALM      30.10S
JOPLIN         MOSUNNY   76  66  71 CALM      30.10R
WEST PLAINS    PTSUNNY   68  62  81 VRB3      30.15R
ROLLA          PTSUNNY   68  64  87 SW9       30.09R
BRANSON        PTSUNNY   75  66  73 N5        30.14R

......SURROUNDING SGF CWA......

CITY           SKY/WX    TMP DP  RH WIND       PRES   REMARKS
CHANUTE        MOSUNNY   74  60  61 E9        30.10R
PARSONS        MOSUNNY   76  66  71 E5        30.10R
COFFEYVILLE    MOSUNNY   75  64  68 CALM      30.08R
EMPORIA        MOSUNNY   72  56  57 NE9       30.08S
SILOAM SPRINGS SUNNY     73  61  64 E3        30.13S
HARRISON AR    MOSUNNY   75  63  66 CALM      30.14R
NEAR YELLVILLE PTSUNNY   75  66  73 SE6       30.10S

......KANSAS AND MISSOURI......

CITY           SKY/WX    TMP DP  RH WIND       PRES   REMARKS
KANSAS CTY INT MOSUNNY   73  58  59 N7        30.08S
DOWNTOWN KC    SUNNY     75  57  53 CALM      30.08R
COLUMBIA       SUNNY     74  59  59 NW8       30.08R
SEDALIA        SUNNY     74  57  55 NW3       30.10R
ST JOSEPH      SUNNY     72  57  59 CALM      30.08R
ST LOUIS       CLOUDY    74  59  59 SW12      30.05F
SPIRIT OF STL  CLOUDY    72  62  71 W9        30.05S
KIRKSVILLE     SUNNY     70  59  68 W8        30.07R
WICHITA        PTSUNNY   71  62  73 SE9       30.08R
TOPEKA         SUNNY     73  59  61 N5        30.08S
OLATHE         SUNNY     73  58  59 E3        30.09R

......TENNESSEE......

CITY           SKY/WX    TMP DP  RH WIND       PRES   REMARKS
MEMPHIS        TSTM      73  65  75 S10       30.16R
NASHVILLE      CLOUDY    77  68  73 SW7       30.19F

......ARKANSAS.......

CITY           SKY/WX    TMP DP  RH WIND       PRES   REMARKS
FAYETTEVILLE   MOSUNNY   73  63  70 MISG      30.13R
FT SMITH       SUNNY     77  65  66 NE5       30.09R
LITTLE ROCK    CLOUDY    76  67  73 S7        30.11S

......OKLAHOMA.......

CITY           SKY/WX    TMP DP  RH WIND       PRES   REMARKS
TULSA          MOSUNNY   76  68  76 S5        30.07R
PONCA CITY     PTSUNNY   71  67  87 CALM      30.09R
MCALESTER      PTSUNNY   76  64  66 S7        30.10R
OKLAHOMA CITY  CLOUDY    73  63  70 S6        30.09R

......IOWA............

CITY           SKY/WX    TMP DP  RH WIND       PRES   REMARKS
DES MOINES     SUNNY     71  57  61 VRB7      30.03R
QUAD CITIES    PTSUNNY   70  58  65 NW16G24   29.99R

......ILLINOIS........

CITY           SKY/WX    TMP DP  RH WIND       PRES   REMARKS
QUINCY         PTSUNNY   69  58  67 W12       30.04S
CHICAGO        PTSUNNY   69  58  67 W20G26    29.94S



USA.gov is the U.S. government's official web portal to all federal, state and local government web resources and services.